Погода в Исабеле

Филиппины     6°41′26″N   122°01′23″E
темп.,
°C
ветер,
м/с
пор.,
м/с
влажн.,
%
обл.,
%
осадки,
мм/ч
давл.,
гПа
погр.,
м
21 апреля, ср
ср2123:00+26зюз4785100 0.1 1010525
02:00+26зюз3685100 0.2 1009395
05:00+26з368449 0.3 1009400
08:00+28з467359 0.3 10111020
11:00+29з577071 0.3 10111030
14:00+29зсз56719 1.2 1009967
17:00+28зсз467696 0.1 1008935
20:00+26з3483100 0.1 1010337
22 апреля, чт
чт2223:00+26зюз3484100 0.1 1011314
02:00+25зюз238698 0.1 1008261
05:00+25юз1286100 0.0 1009131
08:00+28юз126998 0.0 1011476
11:00+30з346054 0.0 10101154
14:00+29з566423 0.0 1008924
17:00+28з44715 0.0 1007652
20:00+26зюз248026 0.0 1010304
23 апреля, пт
пт2323:00+26юз22825 0.0 1010139
02:00+25зюз2283100 0.0 1008188
05:00+25юз228486 0.0 1009136
08:00+28зюз127084 0.0 1011554
11:00+30зсз4462100 0.2 1010998
14:00+30з556051 0.3 10081020
17:00+28зсз4570100 0.0 1008653
20:00+27з247899 0.0 1010338
24 апреля, сб
сб2423:00+26з2381100 0.1 1010246
02:00+26з2383100 0.1 1009263
05:00+26з2484100 0.1 1009359
08:00+28зсз347291 0.1 1012891
11:00+29зсз556745 0.0 10111024
14:00+29зсз5669100 0.1 1009968
17:00+28зсз4574100 0.0 1008761
20:00+27з3482100 0.0 1011337
25 апреля, вс
вс2523:00+26з2483100 0.1 1011247
02:00+26з3584100 0.1 1010377
05:00+26зсз3581100 0.0 1010441
08:00+28зсз457099 0.0 1012965
11:00+30зсз566599 0.0 1011996
14:00+29з5669100 0.1 1009888
17:00+28з4675100 0.1 1009844
20:00+27зсз3581100 0.1 1011401